SCP
0 0 0 0 0 0 0 0 0 0 0 0 0 0 0 0 0 0 0 0 0 0 0 0 0 0 0 0 0 0 0 0 0 0 0 0 0 0 0 -0 -0 -0 -0
0 0 0 0 0 0 0 0 0 0 0 0 0 0 0 0 0 0 0 0 0 0 0 0 0 0 0 0 0 0 0 0 0 0 0 0 0 0 0 0 0 -0 -0
0 0 0 0 0 0 0 0 0 0 0 0 0 0 0 0 0 0 0 0 0 0 0 0 0 0 0 0 0 0 0 0 0 0 0 0 0 0 0 0 0 0 0
0 0 0 0 0 0 0 0 0 0 0 0 0 0 0 0 0 0 0 0 0 0 0 0 0 0 0 0 0 0 0 0 0 0 0 0 0 0 0 0 0 0 0
0 0 0 0 0 0 0 0 0 0 0 0 0 0 0 0 0 0 0 0 0 0 0 0 0 0 0 0 0 0 0 0 0 0 0 0 0 0 0 0 0 0 0
0 0 0 0 0 0 0 0 0 0 0 0 0 0 0 0 0 0 0 0 0 0 0 0 0 0 0 0 0 0 0 0 0 0 0 0 0 0 0 0 0 0 0
0 0 0 0 0 0 0 0 0 0 0 0 0 0 0 0 0 0 0 0 0 0 0 0 0 0 0 0 0 0 0 0 0 0 0 0 0 0 0 0 0 0 0
0 0 0 0 0 0 0 0 0 0 0 0 0 0 0 0 0 0 0 0 0 0 0 0 0 0 0 0 0 0 0 0 0 0 0 0 0 0 0 0 0 0 0
0 0 0 0 0 0 0 0 0 0 0 0 0 0 0 0 0 0 0 0 0 0 0 0 0 0 0 0 0 0 0 0 0 0 0 0 0 0 0 0 0 0 0
0 0 0 0 0 0 0 0 0 0 0 0 0 0 0 0 0 0 0 0 0 0 0 0 0 0 0 0 0 0 0 0 0 0 0 0 0 0 0 0 0 0 0
0 0 0 0 0 0 0 0 0 0 0 0 0 0 0 0 0 0 0 0 0 0 0 0 0 0 0 0 0 0 0 0 0 0 0 0 0 0 0 0 0 0 0
0 0 0 0 0 0 0 0 0 0 0 0 0 0 0 0 0 0 0 0 0 0 0 0 0 0 0 0 0 0 0 0 0 0 0 0 0 0 0 0 0 0 0
0 0 0 0 0 0 0 0 0 0 0 0 0 0 0 0 0 0 0 0 0 0 0 0 0 0 0 0 0 0 0 0 0 0 0 0 0 0 0 0 0 0 0
0 0 0 0 0 0 0 0 0 0 0 0 0 0 0 0 0 0 0 0 0 0 0 0 0 0 0 0 0 0 0 0 0 0 0 0 0 0 0 0 0 0 0
0 0 0 0 0 0 0 0 0 0 0 0 0 0 0 0 0 0 0 0 0 0 0 0 0 0 0 0 0 0 0 0 0 0 0 0 0 0 0 0 0 0 0
0 0 0 0 0 0 0 0 0 0 0 0 0 0 0 0 0 0 0 0 0 0 0 0 0 0 0 0 0 0 0 0 0 0 0 0 0 0 0 0 0 0 0
0 0 0 0 0 0 0 0 0 0 0 0 0 0 0 0 0 0 0 0 0 0 0 0 0 0 0 0 0 0 0 0 0 0 0 0 0 0 0 0 0 0 0
0 0 0 0 0 0 0 0 0 0 0 0 0 0 0 0 0 0 0 0 0 0 0 0 0 0 0 0 0 0 0 0 0 0 0 0 0 0 0 0 0 0 0
0 0 0 0 0 0 0 0 0 0 0 0 0 0 0 0 0 0 0 0 0 0 0 0 0 0 0 0 0 0 0 0 0 0 0 0 0 0 0 0 0 0 0
0 0 0 0 0 0 0 0 0 0 0 0 0 0 0 0 0 0 0 0 0 0 0 0 0 0 0 0 0 0 0 0 0 0 0 0 0 0 0 0 0 0 0
0 0 0 0 0 0 0 0 0 0 0 0 0 0 0 0 0 0 0 0 0 0 0 0 0 0 0 0 0 0 0 0 0 0 0 0 0 0 0 0 0 0 0
0 0 0 0 0 0 0 0 0 0 0 0 0 0 0 0 0 0 0 0 0 0 0 0 0 0 0 0 0 0 0 0 0 0 0 0 0 0 0 0 0 0 0
0 0 0 0 0 0 0 0 0 0 0 0 0 0 0 0 0 0 0 0 0 0 0 0 0 0 0 0 0 0 0 0 0 0 0 0 0 0 0 0 0 0 0
0 0 0 0 0 0 0 0 0 0 0 0 0 0 0 0 0 0 0 0 0 0 0 0 0 0 0 0 0 0 0 0 0 0 0 0 0 0 0 0 0 0 0
0 0 0 0 0 0 0 0 0 0 0 0 0 0 0 0 0 0 0 0 0 0 0 0 0 0 0 0 0 0 0 0 0 0 0 0 0 0 0 0 0 -0 0
0 0 0 0 0 0 0 0 0 0 0 0 0 0 0 0 0 0 0 0 0 0 0 0 0 0 0 0 0 0 0 0 0 0 0 0 0 0 0 0 0 0 0
Wind_Speed_500mb
18 14 9 2 7 10 10 17 12 13 11 8 7 4 2 2 2 9 12 5 3 18 19 18 22 26 28 32 35 37 38 38 41 42 42 44 45 46 47 47 47 47 48
18 16 10 6 8 15 16 14 15 10 13 10 5 9 9 6 6 7 13 12 5 5 16 18 19 23 23 30 30 32 36 40 39 39 39 40 43 45 43 45 45 46 46
24 17 11 5 13 17 21 22 23 21 19 18 16 13 13 11 11 6 10 18 18 11 6 14 19 19 22 21 27 29 31 33 36 34 37 39 38 40 41 43 43 44 43
27 21 15 9 13 17 20 30 30 29 28 26 22 17 17 17 15 12 6 16 21 21 20 16 19 25 18 22 24 25 27 31 30 29 31 31 32 35 35 38 37 40 40
29 20 19 16 16 16 23 30 39 36 37 32 29 25 21 19 19 17 11 13 21 23 24 23 21 21 25 20 15 21 21 23 23 24 25 26 28 29 30 31 32 33 33
29 22 21 22 20 21 24 31 43 42 44 41 36 31 25 23 22 20 19 16 17 22 23 22 18 22 24 20 17 15 17 19 20 19 20 22 24 25 26 27 27 28 31
36 28 25 25 24 26 25 35 41 44 51 47 41 34 30 27 25 24 23 21 21 22 23 23 23 20 17 21 20 14 12 13 16 16 16 18 19 20 22 23 23 25 26
36 35 34 30 28 28 29 38 49 46 55 56 48 37 25 32 32 34 31 25 23 24 25 27 26 24 20 15 15 15 13 10 9 10 10 12 15 16 18 20 21 21 22
38 39 39 38 35 35 37 37 48 50 55 53 64 41 16 20 23 33 34 30 27 27 31 32 31 29 26 22 16 15 12 8 7 4 0 3 5 7 10 13 17 19 20
44 47 46 45 42 39 42 44 50 53 54 63 63 69 57 40 24 21 31 35 32 29 31 37 38 36 34 30 26 20 19 15 10 7 5 6 6 6 9 12 15 17 19
51 52 52 51 49 46 45 48 52 57 60 64 70 74 75 67 56 48 36 41 46 42 40 42 44 45 43 38 33 29 26 20 16 13 11 11 11 11 12 12 15 18 21
57 59 57 56 54 52 50 53 54 60 64 66 71 78 84 82 80 67 57 56 51 48 47 50 50 52 51 48 43 37 33 28 23 19 17 17 16 17 16 17 18 20 22
60 61 61 61 60 59 56 55 59 61 67 72 73 82 84 85 84 78 70 67 58 56 55 57 53 58 59 58 53 47 41 34 30 25 23 22 21 21 23 22 22 24 25
65 61 63 64 65 64 64 62 64 65 67 73 76 78 85 89 87 88 87 80 62 58 62 65 59 66 69 66 62 53 48 41 36 31 29 27 26 26 28 29 28 28 30
71 68 67 66 69 70 71 70 69 67 68 72 76 77 82 84 87 87 89 88 81 46 62 72 71 72 69 71 70 60 55 49 43 38 34 33 32 31 32 34 35 34 36
71 74 69 67 69 74 74 74 75 70 72 72 73 76 78 80 83 83 84 88 89 90 64 53 61 60 60 66 70 64 60 55 46 43 40 39 38 38 38 40 40 41 44
76 77 79 73 71 72 74 78 79 75 75 75 74 74 77 76 76 76 76 76 79 81 81 58 64 62 56 59 69 68 63 57 52 48 45 46 43 44 45 47 47 47 51
75 78 79 82 80 76 75 79 82 80 79 78 75 75 75 73 72 70 70 68 66 69 71 66 69 69 61 56 63 65 64 60 56 52 50 49 49 49 50 53 53 53 53
67 72 81 87 84 82 78 80 84 81 81 82 79 77 74 71 70 67 66 63 59 59 61 66 73 65 60 57 60 66 66 62 58 56 54 53 52 51 55 59 58 56 57
73 73 75 80 87 89 86 82 80 82 83 83 80 78 75 73 68 67 65 61 55 51 57 62 68 63 57 57 60 64 65 63 59 58 59 57 55 55 59 63 58 57 59
79 76 75 75 80 88 92 91 84 81 81 84 84 81 77 75 72 70 68 63 55 47 63 62 65 64 62 61 62 60 61 57 57 59 61 60 59 62 60 59 59 59 59
78 79 77 77 77 82 88 91 86 81 83 85 86 84 80 75 72 70 69 66 61 60 67 64 63 66 63 61 55 55 52 54 55 56 59 58 53 61 64 64 61 62 62
78 78 76 74 75 77 76 83 81 80 85 87 88 87 84 80 74 70 69 69 62 61 66 63 61 63 64 60 56 54 52 54 56 55 60 68 65 72 69 65 67 63 70
80 79 77 75 74 73 70 71 70 73 81 86 90 88 85 82 75 70 69 73 72 70 62 61 67 67 62 57 54 51 50 52 56 58 55 74 68 71 72 68 73 73 62
81 83 81 78 76 73 70 65 63 63 75 85 87 88 87 84 79 69 72 72 69 66 56 65 70 66 64 60 55 54 54 53 56 59 55 62 74 69 73 83 65 60 55
83 82 84 80 78 76 67 64 62 62 72 81 83 86 86 87 79 67 72 73 73 70 63 61 71 67 62 57 54 58 54 54 55 55 47 49 62 66 59 60 38 52 72
Wind_Direction_500mb
337 338 332 301 262 253 251 252 254 242 237 219 206 205 264 304 243 185 172 212 231 115 70 67 80 74 79 72 76 73 69 69 68 64 62 62 61 57 59 57 58 60 60
331 321 322 315 292 248 238 258 238 233 216 216 256 301 296 305 313 248 202 187 219 239 126 87 90 88 82 83 74 73 75 73 68 68 66 63 63 64 59 59 57 57 57
323 310 308 305 268 263 241 244 244 266 272 277 286 286 295 305 331 316 218 197 187 165 182 144 107 99 86 81 85 75 73 73 73 69 65 65 63 63 61 60 58 55 53
323 305 294 273 257 272 251 249 260 261 265 271 275 279 285 301 316 323 271 213 199 186 167 165 144 121 107 85 84 79 77 74 74 73 71 67 66 64 59 56 53 54 51
318 300 284 267 263 258 251 253 249 253 256 258 259 266 269 287 294 307 289 237 215 208 196 179 164 152 123 103 92 90 88 84 79 74 74 70 69 66 63 55 55 52 50
313 313 286 274 265 245 262 246 255 253 251 247 250 253 248 270 276 289 303 274 242 221 212 204 194 166 143 129 115 95 90 90 88 83 75 68 67 63 63 58 50 45 43
303 306 303 285 272 256 240 258 255 258 256 243 245 245 248 247 254 259 269 276 255 243 230 219 213 209 196 167 137 117 101 93 90 88 82 75 64 59 57 57 51 43 40
298 302 305 302 280 263 253 242 255 254 251 250 235 245 250 255 251 253 257 266 261 251 243 236 231 229 227 224 203 178 158 143 125 106 90 72 62 57 51 43 42 39 36
285 288 291 297 297 271 256 245 254 250 252 254 247 232 232 233 242 257 253 256 258 254 249 245 240 237 235 232 221 218 215 204 189 175 50 6 19 19 32 38 32 25 21
274 280 282 286 289 281 260 252 249 250 248 249 243 240 238 245 235 245 254 251 253 256 257 256 251 245 240 236 236 236 228 224 224 235 255 279 301 321 335 355 1 2 5
269 270 273 279 280 284 266 254 248 249 246 243 243 244 240 239 241 244 250 250 254 254 258 260 257 249 245 242 237 235 233 234 233 241 256 266 286 301 312 330 341 351 347
273 270 271 274 275 278 275 260 253 252 254 246 244 244 245 242 241 239 241 248 252 255 254 255 255 255 248 244 241 239 235 235 236 240 253 268 281 291 300 315 326 329 334
278 277 277 276 275 279 281 273 262 257 254 253 246 245 248 248 249 252 250 251 252 250 253 257 252 257 252 246 242 238 236 235 239 245 251 261 272 285 295 303 312 317 324
284 282 275 274 273 273 274 276 268 261 258 254 253 249 247 250 250 250 251 251 245 246 254 253 258 255 251 247 243 237 237 237 239 244 252 261 272 282 291 298 304 308 313
286 286 281 276 275 273 273 273 273 270 264 261 259 255 254 253 252 251 252 254 251 244 253 261 261 263 253 243 240 237 236 236 239 245 253 260 268 277 284 291 296 300 303
285 287 286 281 276 276 274 273 274 277 273 268 264 260 257 258 258 256 251 251 253 253 249 260 263 263 254 243 237 236 238 240 240 245 252 261 269 277 283 287 291 294 298
286 285 286 285 280 274 273 272 272 273 273 271 267 265 263 260 258 257 256 251 249 250 247 247 253 255 252 246 237 235 237 241 242 246 252 260 267 274 280 285 289 292 294
290 285 283 284 283 278 273 269 269 269 270 270 269 266 263 261 260 260 258 255 253 251 250 243 245 251 252 249 238 237 238 241 245 251 255 261 267 274 280 284 288 291 291
302 291 284 281 278 278 277 274 271 268 268 268 267 265 263 259 257 258 259 258 256 253 251 243 247 248 249 247 237 238 239 243 247 252 257 262 269 275 280 283 286 288 290
302 302 295 284 280 277 274 271 269 267 266 266 265 264 263 259 257 259 257 256 254 257 261 247 244 246 247 246 243 240 240 245 251 256 260 264 269 274 278 280 286 289 291
300 298 296 292 284 278 274 272 269 268 266 266 265 264 263 260 257 253 250 249 247 256 257 247 243 245 247 245 245 245 244 251 254 258 265 269 275 277 280 283 290 293 294
304 302 299 296 292 284 281 276 274 271 269 266 264 265 264 261 256 253 251 248 244 248 250 246 247 249 250 250 252 249 249 248 253 263 271 274 275 279 285 288 293 295 297
302 303 301 298 296 294 288 282 276 272 270 269 267 264 264 263 258 252 251 248 245 243 246 243 243 254 251 252 254 254 253 257 260 267 272 277 282 285 292 293 296 296 300
297 297 300 302 299 297 295 289 283 272 270 269 268 266 265 264 260 254 251 249 244 240 240 251 253 246 247 250 253 257 260 263 265 270 276 280 287 289 296 296 300 301 299
295 293 295 296 298 298 298 293 286 276 266 266 267 267 265 262 259 252 249 248 247 243 237 250 250 243 243 247 252 258 262 265 273 280 282 287 289 297 299 303 305 302 297
295 293 291 293 294 296 298 295 291 281 272 266 264 266 266 265 260 250 250 250 245 244 243 248 248 246 245 247 254 259 263 265 274 279 288 278 292 300 304 303 299 295 296
Wind_Speed_850mb
18 14 9 2 7 10 10 17 12 13 11 8 7 4 2 2 2 9 12 5 3 18 19 18 22 26 28 32 35 37 38 38 41 42 42 44 45 46 47 47 47 47 48
18 16 10 6 8 15 16 14 15 10 13 10 5 9 9 6 6 7 13 12 5 5 16 18 19 23 23 30 30 32 36 40 39 39 39 40 43 45 43 45 45 46 46
24 17 11 5 13 17 21 22 23 21 19 18 16 13 13 11 11 6 10 18 18 11 6 14 19 19 22 21 27 29 31 33 36 34 37 39 38 40 41 43 43 44 43
27 21 15 9 13 17 20 30 30 29 28 26 22 17 17 17 15 12 6 16 21 21 20 16 19 25 18 22 24 25 27 31 30 29 31 31 32 35 35 38 37 40 40
29 20 19 16 16 16 23 30 39 36 37 32 29 25 21 19 19 17 11 13 21 23 24 23 21 21 25 20 15 21 21 23 23 24 25 26 28 29 30 31 32 33 33
29 22 21 22 20 21 24 31 43 42 44 41 36 31 25 23 22 20 19 16 17 22 23 22 18 22 24 20 17 15 17 19 20 19 20 22 24 25 26 27 27 28 31
36 28 25 25 24 26 25 35 41 44 51 47 41 34 30 27 25 24 23 21 21 22 23 23 23 20 17 21 20 14 12 13 16 16 16 18 19 20 22 23 23 25 26
36 35 34 30 28 28 29 38 49 46 55 56 48 37 25 32 32 34 31 25 23 24 25 27 26 24 20 15 15 15 13 10 9 10 10 12 15 16 18 20 21 21 22
38 39 39 38 35 35 37 37 48 50 55 53 64 41 16 20 23 33 34 30 27 27 31 32 31 29 26 22 16 15 12 8 7 4 0 3 5 7 10 13 17 19 20
44 47 46 45 42 39 42 44 50 53 54 63 63 69 57 40 24 21 31 35 32 29 31 37 38 36 34 30 26 20 19 15 10 7 5 6 6 6 9 12 15 17 19
51 52 52 51 49 46 45 48 52 57 60 64 70 74 75 67 56 48 36 41 46 42 40 42 44 45 43 38 33 29 26 20 16 13 11 11 11 11 12 12 15 18 21
57 59 57 56 54 52 50 53 54 60 64 66 71 78 84 82 80 67 57 56 51 48 47 50 50 52 51 48 43 37 33 28 23 19 17 17 16 17 16 17 18 20 22
60 61 61 61 60 59 56 55 59 61 67 72 73 82 84 85 84 78 70 67 58 56 55 57 53 58 59 58 53 47 41 34 30 25 23 22 21 21 23 22 22 24 25
65 61 63 64 65 64 64 62 64 65 67 73 76 78 85 89 87 88 87 80 62 58 62 65 59 66 69 66 62 53 48 41 36 31 29 27 26 26 28 29 28 28 30
71 68 67 66 69 70 71 70 69 67 68 72 76 77 82 84 87 87 89 88 81 46 62 72 71 72 69 71 70 60 55 49 43 38 34 33 32 31 32 34 35 34 36
71 74 69 67 69 74 74 74 75 70 72 72 73 76 78 80 83 83 84 88 89 90 64 53 61 60 60 66 70 64 60 55 46 43 40 39 38 38 38 40 40 41 44
76 77 79 73 71 72 74 78 79 75 75 75 74 74 77 76 76 76 76 76 79 81 81 58 64 62 56 59 69 68 63 57 52 48 45 46 43 44 45 47 47 47 51
75 78 79 82 80 76 75 79 82 80 79 78 75 75 75 73 72 70 70 68 66 69 71 66 69 69 61 56 63 65 64 60 56 52 50 49 49 49 50 53 53 53 53
67 72 81 87 84 82 78 80 84 81 81 82 79 77 74 71 70 67 66 63 59 59 61 66 73 65 60 57 60 66 66 62 58 56 54 53 52 51 55 59 58 56 57
73 73 75 80 87 89 86 82 80 82 83 83 80 78 75 73 68 67 65 61 55 51 57 62 68 63 57 57 60 64 65 63 59 58 59 57 55 55 59 63 58 57 59
79 76 75 75 80 88 92 91 84 81 81 84 84 81 77 75 72 70 68 63 55 47 63 62 65 64 62 61 62 60 61 57 57 59 61 60 59 62 60 59 59 59 59
78 79 77 77 77 82 88 91 86 81 83 85 86 84 80 75 72 70 69 66 61 60 67 64 63 66 63 61 55 55 52 54 55 56 59 58 53 61 64 64 61 62 62
78 78 76 74 75 77 76 83 81 80 85 87 88 87 84 80 74 70 69 69 62 61 66 63 61 63 64 60 56 54 52 54 56 55 60 68 65 72 69 65 67 63 70
80 79 77 75 74 73 70 71 70 73 81 86 90 88 85 82 75 70 69 73 72 70 62 61 67 67 62 57 54 51 50 52 56 58 55 74 68 71 72 68 73 73 62
81 83 81 78 76 73 70 65 63 63 75 85 87 88 87 84 79 69 72 72 69 66 56 65 70 66 64 60 55 54 54 53 56 59 55 62 74 69 73 83 65 60 55
83 82 84 80 78 76 67 64 62 62 72 81 83 86 86 87 79 67 72 73 73 70 63 61 71 67 62 57 54 58 54 54 55 55 47 49 62 66 59 60 38 52 72
Wind_Direction_850mb
337 338 332 301 262 253 251 252 254 242 237 219 206 205 264 304 243 185 172 212 231 115 70 67 80 74 79 72 76 73 69 69 68 64 62 62 61 57 59 57 58 60 60
331 321 322 315 292 248 238 258 238 233 216 216 256 301 296 305 313 248 202 187 219 239 126 87 90 88 82 83 74 73 75 73 68 68 66 63 63 64 59 59 57 57 57
323 310 308 305 268 263 241 244 244 266 272 277 286 286 295 305 331 316 218 197 187 165 182 144 107 99 86 81 85 75 73 73 73 69 65 65 63 63 61 60 58 55 53
323 305 294 273 257 272 251 249 260 261 265 271 275 279 285 301 316 323 271 213 199 186 167 165 144 121 107 85 84 79 77 74 74 73 71 67 66 64 59 56 53 54 51
318 300 284 267 263 258 251 253 249 253 256 258 259 266 269 287 294 307 289 237 215 208 196 179 164 152 123 103 92 90 88 84 79 74 74 70 69 66 63 55 55 52 50
313 313 286 274 265 245 262 246 255 253 251 247 250 253 248 270 276 289 303 274 242 221 212 204 194 166 143 129 115 95 90 90 88 83 75 68 67 63 63 58 50 45 43
303 306 303 285 272 256 240 258 255 258 256 243 245 245 248 247 254 259 269 276 255 243 230 219 213 209 196 167 137 117 101 93 90 88 82 75 64 59 57 57 51 43 40
298 302 305 302 280 263 253 242 255 254 251 250 235 245 250 255 251 253 257 266 261 251 243 236 231 229 227 224 203 178 158 143 125 106 90 72 62 57 51 43 42 39 36
285 288 291 297 297 271 256 245 254 250 252 254 247 232 232 233 242 257 253 256 258 254 249 245 240 237 235 232 221 218 215 204 189 175 50 6 19 19 32 38 32 25 21
274 280 282 286 289 281 260 252 249 250 248 249 243 240 238 245 235 245 254 251 253 256 257 256 251 245 240 236 236 236 228 224 224 235 255 279 301 321 335 355 1 2 5
269 270 273 279 280 284 266 254 248 249 246 243 243 244 240 239 241 244 250 250 254 254 258 260 257 249 245 242 237 235 233 234 233 241 256 266 286 301 312 330 341 351 347
273 270 271 274 275 278 275 260 253 252 254 246 244 244 245 242 241 239 241 248 252 255 254 255 255 255 248 244 241 239 235 235 236 240 253 268 281 291 300 315 326 329 334
278 277 277 276 275 279 281 273 262 257 254 253 246 245 248 248 249 252 250 251 252 250 253 257 252 257 252 246 242 238 236 235 239 245 251 261 272 285 295 303 312 317 324
284 282 275 274 273 273 274 276 268 261 258 254 253 249 247 250 250 250 251 251 245 246 254 253 258 255 251 247 243 237 237 237 239 244 252 261 272 282 291 298 304 308 313
286 286 281 276 275 273 273 273 273 270 264 261 259 255 254 253 252 251 252 254 251 244 253 261 261 263 253 243 240 237 236 236 239 245 253 260 268 277 284 291 296 300 303
285 287 286 281 276 276 274 273 274 277 273 268 264 260 257 258 258 256 251 251 253 253 249 260 263 263 254 243 237 236 238 240 240 245 252 261 269 277 283 287 291 294 298
286 285 286 285 280 274 273 272 272 273 273 271 267 265 263 260 258 257 256 251 249 250 247 247 253 255 252 246 237 235 237 241 242 246 252 260 267 274 280 285 289 292 294
290 285 283 284 283 278 273 269 269 269 270 270 269 266 263 261 260 260 258 255 253 251 250 243 245 251 252 249 238 237 238 241 245 251 255 261 267 274 280 284 288 291 291
302 291 284 281 278 278 277 274 271 268 268 268 267 265 263 259 257 258 259 258 256 253 251 243 247 248 249 247 237 238 239 243 247 252 257 262 269 275 280 283 286 288 290
302 302 295 284 280 277 274 271 269 267 266 266 265 264 263 259 257 259 257 256 254 257 261 247 244 246 247 246 243 240 240 245 251 256 260 264 269 274 278 280 286 289 291
300 298 296 292 284 278 274 272 269 268 266 266 265 264 263 260 257 253 250 249 247 256 257 247 243 245 247 245 245 245 244 251 254 258 265 269 275 277 280 283 290 293 294
304 302 299 296 292 284 281 276 274 271 269 266 264 265 264 261 256 253 251 248 244 248 250 246 247 249 250 250 252 249 249 248 253 263 271 274 275 279 285 288 293 295 297
302 303 301 298 296 294 288 282 276 272 270 269 267 264 264 263 258 252 251 248 245 243 246 243 243 254 251 252 254 254 253 257 260 267 272 277 282 285 292 293 296 296 300
297 297 300 302 299 297 295 289 283 272 270 269 268 266 265 264 260 254 251 249 244 240 240 251 253 246 247 250 253 257 260 263 265 270 276 280 287 289 296 296 300 301 299
295 293 295 296 298 298 298 293 286 276 266 266 267 267 265 262 259 252 249 248 247 243 237 250 250 243 243 247 252 258 262 265 273 280 282 287 289 297 299 303 305 302 297
295 293 291 293 294 296 298 295 291 281 272 266 264 266 266 265 260 250 250 250 245 244 243 248 248 246 245 247 254 259 263 265 274 279 288 278 292 300 304 303 299 295 296